| time (UTC) | temp C | wind direction | speed KPH | gust KPH | rain 1hr cm | rain 24hr cm | rain mn cm | humidity % | barometer mb |
| 20260506195500 | 21 | 20 | 1.6 | 8.0 | 0.00 | 0.00 | 0.00 | 48 | 1020.1 |
| 20260506194956 | 21 | 227 | 1.6 | 4.8 | 0.00 | 0.00 | 0.00 | 51 | 1020.1 |
| 20260506194454 | 20 | 212 | 6.4 | 9.7 | 0.00 | 0.00 | 0.00 | 50 | 1020.1 |
| 20260506193950 | 20 | 207 | 4.8 | 6.4 | 0.00 | 0.00 | 0.00 | 50 | 1020.1 |
| 20260506193448 | 20 | 200 | 3.2 | 4.8 | 0.00 | 0.00 | 0.00 | 51 | 1020.1 |
| 20260506192944 | 20 | 317 | 3.2 | 6.4 | 0.00 | 0.00 | 0.00 | 51 | 1020.1 |
| 20260506192441 | 20 | 359 | 1.6 | 4.8 | 0.00 | 0.00 | 0.00 | 52 | 1020.3 |
| 20260506191938 | 19 | 20 | 6.4 | 8.0 | 0.00 | 0.00 | 0.00 | 52 | 1020.3 |
| 20260506191434 | 20 | 318 | 11.3 | 12.9 | 0.00 | 0.00 | 0.00 | 51 | 1020.5 |
| 20260506190931 | 20 | 78 | 4.8 | 6.4 | 0.00 | 0.00 | 0.00 | 50 | 1020.4 |
| 20260506190428 | 19 | 351 | 4.8 | 6.4 | 0.00 | 0.00 | 0.00 | 55 | 1020.4 |
| 20260506185925 | 18 | 340 | 3.2 | 6.4 | 0.00 | 0.00 | 0.00 | 56 | 1020.4 |
| 20260506185422 | 19 | 303 | 9.7 | 17.7 | 0.00 | 0.00 | 0.00 | 51 | 1020.7 |
| 20260506184919 | 21 | 3 | 3.2 | 9.7 | 0.00 | 0.00 | 0.00 | 47 | 1020.4 |
| 20260506184415 | 21 | 261 | 3.2 | 6.4 | 0.00 | 0.00 | 0.00 | 49 | 1020.5 |
| 20260506183913 | 20 | 254 | 3.2 | 9.7 | 0.00 | 0.00 | 0.00 | 50 | 1020.5 |
| 20260506183408 | 20 | 332 | 6.4 | 6.4 | 0.00 | 0.00 | 0.00 | 51 | 1020.6 |
| 20260506182906 | 20 | 330 | 3.2 | 6.4 | 0.00 | 0.00 | 0.00 | 50 | 1020.4 |
| 20260506182403 | 20 | 205 | 3.2 | 4.8 | 0.00 | 0.00 | 0.00 | 51 | 1020.5 |
| 20260506181900 | 19 | 108 | 3.2 | 4.8 | 0.00 | 0.00 | 0.00 | 52 | 1020.8 |
| 20260506181358 | 18 | 240 | 6.4 | 8.0 | 0.00 | 0.00 | 0.00 | 54 | 1020.7 |
| 20260506180855 | 19 | 245 | 4.8 | 6.4 | 0.00 | 0.00 | 0.00 | 52 | 1020.6 |
| 20260506180351 | 20 | 165 | 3.2 | 8.0 | 0.00 | 0.00 | 0.00 | 52 | 1020.6 |
| 20260506175847 | 20 | 193 | 1.6 | 4.8 | 0.00 | 0.00 | 0.00 | 51 | 1020.7 |
| 20260506175344 | 19 | 158 | 4.8 | 9.7 | 0.00 | 0.00 | 0.00 | 51 | 1020.7 |
| 20260506174841 | 20 | 238 | 6.4 | 11.3 | 0.00 | 0.00 | 0.00 | 51 | 1020.6 |
| 20260506174339 | 20 | 235 | 0.0 | 6.4 | 0.00 | 0.00 | 0.00 | 53 | 1020.8 |
| 20260506173836 | 19 | 147 | 3.2 | 4.8 | 0.00 | 0.00 | 0.00 | 54 | 1020.5 |
| 20260506173333 | 19 | 271 | 4.8 | 6.4 | 0.00 | 0.00 | 0.00 | 53 | 1020.5 |
| 20260506172830 | 18 | 149 | 6.4 | 6.4 | 0.00 | 0.00 | 0.00 | 54 | 1020.6 |
| 20260506172326 | 19 | 197 | 4.8 | 8.0 | 0.00 | 0.00 | 0.00 | 53 | 1020.8 |
| 20260506171824 | 19 | 275 | 3.2 | 8.0 | 0.00 | 0.00 | 0.00 | 51 | 1020.7 |
| 20260506171321 | 19 | 209 | 0.0 | 4.8 | 0.00 | 0.00 | 0.00 | 52 | 1020.7 |
| 20260506170819 | 18 | 145 | 0.0 | 4.8 | 0.00 | 0.00 | 0.00 | 55 | 1020.7 |
| 20260506170314 | 18 | 243 | 3.2 | 8.0 | 0.00 | 0.00 | 0.00 | 57 | 1020.7 |
| 20260506165814 | 18 | 312 | 6.4 | 9.7 | 0.00 | 0.00 | 0.00 | 53 | 1020.6 |
| 20260506165310 | 18 | 281 | 6.4 | 6.4 | 0.00 | 0.00 | 0.00 | 54 | 1020.7 |
| 20260506164807 | 18 | 50 | 1.6 | 8.0 | 0.00 | 0.00 | 0.00 | 55 | 1020.6 |
| 20260506164304 | 18 | 153 | 3.2 | 6.4 | 0.00 | 0.00 | 0.00 | 56 | 1020.6 |
| 20260506163801 | 18 | 247 | 0.0 | 4.8 | 0.00 | 0.00 | 0.00 | 57 | 1020.6 |
| 20260506163256 | 18 | 272 | 8.0 | 14.5 | 0.00 | 0.00 | 0.00 | 54 | 1020.5 |
| 20260506162752 | 17 | 194 | 0.0 | 3.2 | 0.00 | 0.00 | 0.00 | 57 | 1020.7 |
| 20260506162250 | 17 | 16 | 3.2 | 6.4 | 0.00 | 0.00 | 0.00 | 56 | 1020.9 |
| 20260506161747 | 17 | 263 | 3.2 | 4.8 | 0.00 | 0.00 | 0.00 | 57 | 1020.5 |
| 20260506161244 | 17 | 314 | 3.2 | 6.4 | 0.00 | 0.00 | 0.00 | 57 | 1020.6 |
| 20260506160741 | 17 | 144 | 0.0 | 3.2 | 0.00 | 0.00 | 0.00 | 57 | 1020.7 |
| 20260506160238 | 16 | 199 | 1.6 | 4.8 | 0.00 | 0.00 | 0.00 | 60 | 1020.8 |
| 20260506155737 | 16 | 177 | 0.0 | 4.8 | 0.00 | 0.00 | 0.00 | 62 | 1020.8 |
| 20260506155233 | 15 | 36 | 3.2 | 3.2 | 0.00 | 0.00 | 0.00 | 62 | 1020.8 |
| 20260506153340 | 14 | 69 | 1.6 | 3.2 | 0.00 | 0.00 | 0.00 | 66 | 1020.8 |
| 20260506152837 | 13 | 84 | 3.2 | 4.8 | 0.00 | 0.00 | 0.00 | 66 | 1020.7 |
| 20260506152334 | 13 | 98 | 0.0 | 4.8 | 0.00 | 0.00 | 0.00 | 68 | 1020.9 |
| 20260506151833 | 13 | 111 | 0.0 | 4.8 | 0.00 | 0.00 | 0.00 | 68 | 1020.6 |
| 20260506151329 | 13 | 97 | 3.2 | 3.2 | 0.00 | 0.00 | 0.00 | 69 | 1020.8 |
| 20260506150827 | 12 | 70 | 1.6 | 4.8 | 0.00 | 0.00 | 0.00 | 69 | 1020.8 |
| 20260506150323 | 12 | 22 | 4.8 | 4.8 | 0.00 | 0.00 | 0.00 | 71 | 1020.8 |
| 20260506145820 | 12 | 61 | 3.2 | 4.8 | 0.00 | 0.00 | 0.00 | 70 | 1020.9 |
| 20260506145316 | 12 | 68 | 3.2 | 3.2 | 0.00 | 0.00 | 0.00 | 72 | 1020.5 |
| 20260506144814 | 12 | 50 | 0.0 | 3.2 | 0.00 | 0.00 | 0.00 | 72 | 1020.9 |
| 20260506144310 | 11 | 88 | 3.2 | 4.8 | 0.00 | 0.00 | 0.00 | 74 | 1020.8 |
| 20260506143809 | 11 | 62 | 3.2 | 4.8 | 0.00 | 0.00 | 0.00 | 75 | 1021.0 |
| 20260506143306 | 11 | 46 | 0.0 | 3.2 | 0.00 | 0.00 | 0.00 | 78 | 1021.0 |
| 20260506142804 | 11 | 44 | 0.0 | 3.2 | 0.00 | 0.00 | 0.00 | 78 | 1020.7 |
| 20260506142301 | 10 | 32 | 4.8 | 4.8 | 0.00 | 0.00 | 0.00 | 80 | 1020.9 |
| 20260506141800 | 10 | 34 | 3.2 | 6.4 | 0.00 | 0.00 | 0.00 | 79 | 1020.6 |
| 20260506141258 | 10 | 21 | 4.8 | 6.4 | 0.00 | 0.00 | 0.00 | 81 | 1020.8 |
| 20260506140755 | 9 | 16 | 1.6 | 4.8 | 0.00 | 0.00 | 0.00 | 83 | 1020.7 |
| 20260506140252 | 9 | 15 | 1.6 | 3.2 | 0.00 | 0.00 | 0.00 | 84 | 1020.6 |
| 20260506135749 | 8 | 10 | 3.2 | 3.2 | 0.00 | 0.00 | 0.00 | 85 | 1020.7 |
| 20260506135245 | 8 | 357 | 3.2 | 4.8 | 0.00 | 0.00 | 0.00 | 85 | 1020.6 |
| 20260506134742 | 8 | 17 | 3.2 | 4.8 | 0.00 | 0.00 | 0.00 | 88 | 1020.4 |
| 20260506134238 | 7 | 31 | 1.6 | 3.2 | 0.00 | 0.00 | 0.00 | 89 | 1020.4 |
| 20260506133736 | 7 | 18 | 3.2 | 4.8 | 0.00 | 0.00 | 0.00 | 90 | 1020.3 |
| 20260506133232 | 7 | 3 | 3.2 | 4.8 | 0.00 | 0.00 | 0.00 | 90 | 1020.3 |
| 20260506132729 | 7 | 6 | 3.2 | 4.8 | 0.00 | 0.00 | 0.00 | 89 | 1020.2 |
| 20260506132226 | 7 | 13 | 1.6 | 3.2 | 0.00 | 0.00 | 0.00 | 89 | 1020.2 |
| 20260506131724 | 7 | 22 | 3.2 | 3.2 | 0.00 | 0.00 | 0.00 | 89 | 1020.2 |
| 20260506131220 | 7 | 21 | 1.6 | 3.2 | 0.00 | 0.00 | 0.00 | 89 | 1020.1 |
| 20260506130717 | 7 | 11 | 1.6 | 3.2 | 0.00 | 0.00 | 0.00 | 90 | 1020.1 |
| 20260506130214 | 7 | 6 | 3.2 | 4.8 | 0.00 | 0.00 | 0.00 | 90 | 1019.7 |
| 20260506125712 | 7 | 28 | 1.6 | 3.2 | 0.00 | 0.00 | 0.00 | 91 | 1019.8 |
| 20260506125209 | 6 | 41 | 1.6 | 1.6 | 0.00 | 0.00 | 0.00 | 92 | 1020.0 |
| 20260506124707 | 6 | 29 | 3.2 | 3.2 | 0.00 | 0.00 | 0.00 | 91 | 1019.8 |
| 20260506124205 | 6 | 38 | 1.6 | 3.2 | 0.00 | 0.00 | 0.00 | 91 | 1019.7 |
| 20260506123702 | 6 | 321 | 3.2 | 4.8 | 0.00 | 0.00 | 0.00 | 91 | 1019.7 |
| 20260506123201 | 6 | 65 | 1.6 | 1.6 | 0.00 | 0.00 | 0.00 | 91 | 1019.7 |
| 20260506122657 | 7 | 69 | 0.0 | 3.2 | 0.00 | 0.00 | 0.00 | 90 | 1019.5 |
| 20260506122155 | 7 | 337 | 1.6 | 3.2 | 0.00 | 0.00 | 0.00 | 90 | 1019.6 |
| 20260506121652 | 7 | 30 | 4.8 | 4.8 | 0.00 | 0.00 | 0.00 | 90 | 1019.8 |
| 20260506121148 | 7 | 27 | 3.2 | 3.2 | 0.00 | 0.00 | 0.00 | 89 | 1019.7 |
| 20260506120647 | 7 | 23 | 1.6 | 6.4 | 0.00 | 0.00 | 0.00 | 89 | 1019.5 |
| 20260506120143 | 7 | 4 | 4.8 | 4.8 | 0.00 | 0.00 | 0.00 | 89 | 1019.6 |
| 20260506115642 | 7 | 46 | 0.0 | 3.2 | 0.00 | 0.00 | 0.00 | 89 | 1019.6 |
| 20260506115140 | 7 | 359 | 3.2 | 4.8 | 0.00 | 0.00 | 0.00 | 88 | 1019.7 |
| 20260506114637 | 7 | 17 | 3.2 | 3.2 | 0.00 | 0.00 | 0.00 | 87 | 1019.5 |
| 20260506114135 | 7 | 18 | 3.2 | 4.8 | 0.00 | 0.00 | 0.00 | 88 | 1019.7 |
| 20260506113633 | 7 | 21 | 3.2 | 6.4 | 0.00 | 0.00 | 0.00 | 88 | 1019.6 |
| 20260506113130 | 7 | 347 | 1.6 | 4.8 | 0.00 | 0.00 | 0.00 | 88 | 1019.7 |
| 20260506112626 | 7 | 21 | 1.6 | 3.2 | 0.00 | 0.00 | 0.00 | 87 | 1019.6 |
| 20260506112124 | 7 | 23 | 3.2 | 4.8 | 0.00 | 0.00 | 0.00 | 88 | 1019.5 |
| 20260506111621 | 7 | 65 | 1.6 | 3.2 | 0.00 | 0.00 | 0.00 | 87 | 1019.3 |
| 20260506111119 | 7 | 28 | 3.2 | 4.8 | 0.00 | 0.00 | 0.00 | 88 | 1019.4 |
| 20260506110616 | 7 | 330 | 1.6 | 6.4 | 0.00 | 0.00 | 0.00 | 88 | 1019.5 |
| 20260506110113 | 7 | 31 | 4.8 | 4.8 | 0.00 | 0.00 | 0.00 | 89 | 1019.4 |
| 20260506105609 | 7 | 40 | 1.6 | 3.2 | 0.00 | 0.00 | 0.00 | 88 | 1019.3 |
| 20260506105107 | 7 | 23 | 3.2 | 3.2 | 0.00 | 0.00 | 0.00 | 88 | 1019.3 |
| 20260506104605 | 7 | 12 | 3.2 | 3.2 | 0.00 | 0.00 | 0.00 | 89 | 1019.2 |
| 20260506104102 | 7 | 13 | 3.2 | 4.8 | 0.00 | 0.00 | 0.00 | 89 | 1019.1 |
| 20260506103559 | 7 | 353 | 3.2 | 3.2 | 0.00 | 0.00 | 0.00 | 89 | 1019.0 |
| 20260506103056 | 7 | 18 | 3.2 | 3.2 | 0.00 | 0.00 | 0.00 | 90 | 1019.1 |
| 20260506102554 | 7 | 6 | 3.2 | 4.8 | 0.00 | 0.00 | 0.00 | 91 | 1018.9 |
| 20260506102051 | 7 | 19 | 3.2 | 3.2 | 0.00 | 0.00 | 0.00 | 90 | 1019.0 |
| 20260506101548 | 7 | 20 | 1.6 | 3.2 | 0.00 | 0.00 | 0.00 | 90 | 1019.1 |
| 20260506101045 | 7 | 21 | 3.2 | 4.8 | 0.00 | 0.00 | 0.00 | 89 | 1018.8 |
| 20260506100543 | 7 | 22 | 1.6 | 3.2 | 0.00 | 0.00 | 0.00 | 89 | 1018.9 |
| 20260506100041 | 7 | 23 | 4.8 | 4.8 | 0.00 | 0.00 | 0.00 | 89 | 1018.9 |
| 20260506095540 | 7 | 15 | 1.6 | 4.8 | 0.00 | 0.00 | 0.00 | 88 | 1018.8 |
| 20260506095036 | 7 | 19 | 3.2 | 9.7 | 0.00 | 0.00 | 0.00 | 88 | 1019.1 |
| 20260506094533 | 7 | 68 | 1.6 | 4.8 | 0.00 | 0.00 | 0.00 | 88 | 1019.1 |
| 20260506094031 | 7 | 79 | 0.0 | 3.2 | 0.00 | 0.00 | 0.00 | 90 | 1019.0 |
| 20260506093529 | 7 | 26 | 3.2 | 4.8 | 0.00 | 0.00 | 0.00 | 90 | 1019.0 |
| 20260506093026 | 7 | 52 | 0.0 | 3.2 | 0.00 | 0.00 | 0.00 | 90 | 1019.2 |
| 20260506092524 | 7 | 29 | 1.6 | 3.2 | 0.00 | 0.00 | 0.00 | 90 | 1019.2 |
| 20260506092020 | 7 | 44 | 0.0 | 1.6 | 0.00 | 0.00 | 0.00 | 90 | 1019.2 |
| 20260506091519 | 7 | 32 | 3.2 | 4.8 | 0.00 | 0.00 | 0.00 | 89 | 1019.0 |
| 20260506091016 | 7 | 24 | 3.2 | 4.8 | 0.00 | 0.00 | 0.00 | 89 | 1018.9 |
| 20260506090514 | 7 | 41 | 3.2 | 4.8 | 0.00 | 0.00 | 0.00 | 88 | 1019.0 |
| 20260506090010 | 8 | 3 | 1.6 | 3.2 | 0.00 | 0.00 | 0.00 | 87 | 1019.1 |
| 20260506085507 | 8 | 13 | 1.6 | 3.2 | 0.00 | 0.00 | 0.00 | 88 | 1019.2 |
| 20260506085003 | 7 | 23 | 3.2 | 3.2 | 0.00 | 0.00 | 0.00 | 89 | 1019.3 |
| 20260506084500 | 7 | 13 | 1.6 | 4.8 | 0.00 | 0.00 | 0.00 | 87 | 1019.1 |
| 20260506083956 | 8 | 38 | 0.0 | 3.2 | 0.00 | 0.00 | 0.00 | 87 | 1019.0 |
| 20260506083453 | 8 | 100 | 1.6 | 3.2 | 0.00 | 0.00 | 0.00 | 88 | 1019.1 |
| 20260506082951 | 8 | 11 | 3.2 | 4.8 | 0.00 | 0.00 | 0.00 | 88 | 1019.1 |
| 20260506082448 | 7 | 23 | 0.0 | 3.2 | 0.00 | 0.00 | 0.00 | 89 | 1019.2 |
| 20260506081943 | 7 | 30 | 1.6 | 4.8 | 0.00 | 0.00 | 0.00 | 88 | 1019.1 |
| 20260506081442 | 8 | 12 | 3.2 | 3.2 | 0.00 | 0.00 | 0.00 | 88 | 1019.1 |
| 20260506080939 | 8 | 18 | 3.2 | 4.8 | 0.00 | 0.00 | 0.00 | 88 | 1019.1 |
| 20260506080436 | 8 | 26 | 3.2 | 3.2 | 0.00 | 0.00 | 0.00 | 88 | 1019.1 |
| 20260506073420 | 8 | 335 | 1.6 | 6.4 | 0.00 | 0.00 | 0.00 | 87 | 1018.9 |
| 20260506072917 | 8 | 15 | 3.2 | 3.2 | 0.00 | 0.00 | 0.00 | 87 | 1018.8 |
| 20260506072414 | 8 | 26 | 3.2 | 4.8 | 0.00 | 0.00 | 0.00 | 86 | 1018.9 |
| 20260506071912 | 8 | 17 | 3.2 | 3.2 | 0.00 | 0.00 | 0.00 | 86 | 1018.7 |
| 20260506071410 | 8 | 33 | 3.2 | 3.2 | 0.00 | 0.00 | 0.00 | 87 | 1018.8 |
| 20260506070906 | 8 | 21 | 1.6 | 3.2 | 0.00 | 0.00 | 0.00 | 87 | 1018.4 |
| 20260506070403 | 8 | 11 | 1.6 | 3.2 | 0.00 | 0.00 | 0.00 | 87 | 1018.7 |
| 20260506062340 | 8 | 63 | 1.6 | 1.6 | 0.00 | 0.10 | 0.10 | 89 | 1018.3 |
| 20260506061836 | 8 | 42 | 3.2 | 3.2 | 0.00 | 0.10 | 0.10 | 88 | 1018.2 |
| 20260506061333 | 8 | 55 | 0.0 | 0.0 | 0.00 | 0.10 | 0.10 | 89 | 1018.3 |
| 20260506060831 | 8 | 130 | 0.0 | 0.0 | 0.00 | 0.10 | 0.10 | 89 | 1018.0 |
| 20260506060329 | 8 | 330 | 1.6 | 3.2 | 0.00 | 0.10 | 0.10 | 89 | 1018.1 |
| 20260506051300 | 8 | 36 | 0.0 | 3.2 | 0.00 | 0.10 | 0.10 | 88 | 1017.7 |
| 20260506050758 | 8 | 44 | 0.0 | 0.0 | 0.00 | 0.10 | 0.10 | 88 | 1017.5 |
| 20260506050256 | 8 | 66 | 0.0 | 0.0 | 0.00 | 0.10 | 0.10 | 87 | 1017.5 |
| 20260506044746 | 9 | 53 | 0.0 | 1.6 | 0.00 | 0.10 | 0.10 | 86 | 1017.4 |
| 20260506044244 | 9 | 122 | 0.0 | 3.2 | 0.00 | 0.10 | 0.10 | 85 | 1017.3 |
| 20260506043741 | 9 | 14 | 3.2 | 4.8 | 0.00 | 0.10 | 0.10 | 85 | 1017.3 |
| 20260506043238 | 8 | 10 | 3.2 | 3.2 | 0.00 | 0.10 | 0.10 | 87 | 1017.3 |
| 20260506042737 | 8 | 5 | 0.0 | 1.6 | 0.00 | 0.10 | 0.10 | 87 | 1017.2 |
| 20260506042235 | 9 | 246 | 0.0 | 1.6 | 0.00 | 0.10 | 0.10 | 86 | 1017.2 |
| 20260506041733 | 9 | 280 | 0.0 | 0.0 | 0.00 | 0.10 | 0.10 | 86 | 1017.2 |
| 20260506041230 | 9 | 279 | 0.0 | 0.0 | 0.00 | 0.10 | 0.10 | 85 | 1017.0 |
| 20260506040727 | 9 | 235 | 0.0 | 1.6 | 0.00 | 0.10 | 0.10 | 85 | 1016.9 |
| 20260506040224 | 9 | 63 | 0.0 | 1.6 | 0.00 | 0.10 | 0.10 | 85 | 1016.9 |
| 20260506035721 | 10 | 38 | 0.0 | 0.0 | 0.00 | 0.10 | 0.10 | 84 | 1016.7 |
| 20260506035218 | 10 | 42 | 0.0 | 0.0 | 0.00 | 0.10 | 0.10 | 83 | 1017.0 |
| 20260506034714 | 10 | 338 | 0.0 | 3.2 | 0.00 | 0.10 | 0.10 | 83 | 1016.6 |
| 20260506034212 | 10 | 17 | 0.0 | 0.0 | 0.00 | 0.10 | 0.10 | 83 | 1016.7 |
| 20260506033709 | 10 | 27 | 4.8 | 6.4 | 0.00 | 0.10 | 0.10 | 82 | 1016.7 |
| 20260506033206 | 10 | 212 | 0.0 | 1.6 | 0.00 | 0.10 | 0.10 | 82 | 1016.5 |
| 20260506032703 | 10 | 333 | 1.6 | 3.2 | 0.00 | 0.10 | 0.10 | 82 | 1016.5 |
| 20260506032200 | 10 | 29 | 0.0 | 1.6 | 0.00 | 0.10 | 0.10 | 81 | 1016.5 |
| 20260506031656 | 10 | 326 | 0.0 | 1.6 | 0.00 | 0.10 | 0.10 | 81 | 1016.4 |
| 20260506031154 | 11 | 22 | 0.0 | 1.6 | 0.00 | 0.10 | 0.10 | 80 | 1016.3 |
| 20260506030652 | 11 | 22 | 0.0 | 0.0 | 0.00 | 0.10 | 0.10 | 79 | 1016.2 |
| 20260506030149 | 11 | 32 | 0.0 | 1.6 | 0.00 | 0.10 | 0.10 | 79 | 1016.1 |
| 20260506025646 | 11 | 336 | 0.0 | 0.0 | 0.00 | 0.10 | 0.10 | 78 | 1016.1 |
| 20260506025142 | 11 | 49 | 0.0 | 1.6 | 0.00 | 0.10 | 0.10 | 77 | 1016.0 |
| 20260506024640 | 12 | 232 | 0.0 | 1.6 | 0.00 | 0.10 | 0.10 | 76 | 1016.2 |
| 20260506024135 | 12 | 246 | 0.0 | 0.0 | 0.00 | 0.10 | 0.10 | 73 | 1016.1 |
| 20260506023632 | 13 | 309 | 0.0 | 1.6 | 0.00 | 0.10 | 0.10 | 69 | 1016.0 |
| 20260506023129 | 13 | 17 | 3.2 | 6.4 | 0.00 | 0.10 | 0.10 | 64 | 1015.9 |
| 20260506022627 | 13 | 60 | 0.0 | 3.2 | 0.00 | 0.10 | 0.10 | 66 | 1015.9 |
| 20260506022124 | 14 | 7 | 3.2 | 6.4 | 0.00 | 0.10 | 0.10 | 64 | 1015.7 |
| 20260506021622 | 14 | 69 | 0.0 | 0.0 | 0.00 | 0.10 | 0.10 | 66 | 1015.7 |
| 20260506021119 | 15 | 50 | 0.0 | 3.2 | 0.00 | 0.10 | 0.10 | 63 | 1015.5 |
| 20260506020616 | 15 | 69 | 0.0 | 1.6 | 0.00 | 0.10 | 0.10 | 61 | 1015.6 |
| 20260506020113 | 15 | 73 | 3.2 | 4.8 | 0.00 | 0.10 | 0.10 | 60 | 1015.6 |
| 20260506015611 | 16 | 51 | 1.6 | 4.8 | 0.00 | 0.10 | 0.10 | 60 | 1015.6 |
| 20260506015107 | 16 | 104 | 0.0 | 4.8 | 0.00 | 0.10 | 0.10 | 59 | 1015.5 |
| 20260506014605 | 16 | 36 | 3.2 | 4.8 | 0.00 | 0.10 | 0.10 | 57 | 1015.5 |
| 20260506014100 | 16 | 98 | 4.8 | 6.4 | 0.00 | 0.10 | 0.10 | 56 | 1015.5 |
| 20260506013559 | 16 | 31 | 6.4 | 6.4 | 0.00 | 0.10 | 0.10 | 58 | 1015.3 |
| 20260506013055 | 16 | 340 | 1.6 | 8.0 | 0.00 | 0.10 | 0.10 | 56 | 1015.4 |
| 20260506012551 | 16 | 29 | 4.8 | 6.4 | 0.00 | 0.10 | 0.10 | 57 | 1015.5 |
| 20260506012048 | 16 | 50 | 0.0 | 1.6 | 0.00 | 0.10 | 0.10 | 56 | 1015.5 |
| 20260506011546 | 16 | 295 | 3.2 | 6.4 | 0.00 | 0.10 | 0.10 | 56 | 1015.3 |
| 20260506011042 | 16 | 0 | 3.2 | 11.3 | 0.00 | 0.10 | 0.10 | 55 | 1015.5 |
| 20260506010542 | 16 | 309 | 3.2 | 8.0 | 0.00 | 0.10 | 0.10 | 53 | 1015.6 |
| 20260506010038 | 16 | 317 | 6.4 | 8.0 | 0.00 | 0.10 | 0.10 | 55 | 1015.6 |
| 20260506005535 | 16 | 23 | 14.5 | 14.5 | 0.00 | 0.10 | 0.10 | 54 | 1015.6 |
| 20260506005031 | 16 | 13 | 6.4 | 9.7 | 0.00 | 0.10 | 0.10 | 55 | 1015.4 |
| 20260506004529 | 16 | 106 | 3.2 | 9.7 | 0.00 | 0.10 | 0.10 | 56 | 1015.3 |
| 20260506004025 | 17 | 119 | 4.8 | 4.8 | 0.00 | 0.10 | 0.10 | 56 | 1015.4 |
| 20260506003521 | 17 | 37 | 3.2 | 4.8 | 0.00 | 0.10 | 0.10 | 58 | 1015.4 |
| 20260506003018 | 16 | 71 | 3.2 | 6.4 | 0.00 | 0.10 | 0.10 | 58 | 1015.6 |
| 20260506002514 | 16 | 51 | 4.8 | 4.8 | 0.00 | 0.10 | 0.10 | 59 | 1015.6 |
| 20260506002009 | 16 | 60 | 0.0 | 4.8 | 0.00 | 0.10 | 0.10 | 59 | 1015.6 |
| 20260506001506 | 16 | 43 | 3.2 | 6.4 | 0.00 | 0.10 | 0.10 | 59 | 1015.6 |
| 20260506001004 | 16 | 87 | 3.2 | 6.4 | 0.00 | 0.10 | 0.10 | 59 | 1015.6 |
| 20260506000501 | 16 | 65 | 1.6 | 6.4 | 0.00 | 0.10 | 0.10 | 59 | 1015.5 |
| 20260505235958 | 16 | 142 | 1.6 | 3.2 | 0.00 | 0.10 | 0.10 | 58 | 1015.6 |
| 20260505235456 | 16 | 98 | 0.0 | 4.8 | 0.00 | 0.10 | 0.10 | 59 | 1015.6 |
| 20260505234952 | 16 | 67 | 3.2 | 3.2 | 0.00 | 0.10 | 0.10 | 61 | 1015.7 |
| 20260505234450 | 16 | 96 | 1.6 | 3.2 | 0.00 | 0.10 | 0.10 | 60 | 1015.7 |
| 20260505233946 | 16 | 71 | 3.2 | 3.2 | 0.00 | 0.10 | 0.10 | 60 | 1015.7 |
| 20260505233444 | 15 | 89 | 0.0 | 4.8 | 0.00 | 0.10 | 0.10 | 61 | 1015.9 |
| 20260505232941 | 15 | 40 | 3.2 | 4.8 | 0.00 | 0.10 | 0.10 | 61 | 1015.6 |
| 20260505232439 | 15 | 10 | 6.4 | 6.4 | 0.00 | 0.10 | 0.10 | 61 | 1016.2 |
| 20260505231936 | 15 | 59 | 1.6 | 3.2 | 0.00 | 0.10 | 0.10 | 62 | 1015.9 |
| 20260505231433 | 15 | 39 | 0.0 | 3.2 | 0.00 | 0.10 | 0.10 | 58 | 1015.7 |
| 20260505230931 | 15 | 310 | 4.8 | 4.8 | 0.00 | 0.10 | 0.10 | 57 | 1016.1 |
| 20260505230429 | 15 | 300 | 3.2 | 8.0 | 0.00 | 0.10 | 0.10 | 57 | 1015.9 |
| 20260505225925 | 15 | 15 | 4.8 | 6.4 | 0.00 | 0.10 | 0.10 | 58 | 1015.9 |
| 20260505225422 | 15 | 10 | 0.0 | 3.2 | 0.00 | 0.10 | 0.10 | 60 | 1015.7 |
| 20260505224918 | 15 | 304 | 3.2 | 4.8 | 0.00 | 0.10 | 0.10 | 58 | 1015.9 |
| 20260505224415 | 15 | 306 | 6.4 | 8.0 | 0.00 | 0.10 | 0.10 | 57 | 1015.9 |
| 20260505223912 | 15 | 317 | 3.2 | 6.4 | 0.00 | 0.10 | 0.10 | 59 | 1015.7 |
| 20260505223409 | 15 | 310 | 3.2 | 4.8 | 0.00 | 0.10 | 0.10 | 59 | 1016.0 |
| 20260505222905 | 15 | 9 | 4.8 | 12.9 | 0.00 | 0.10 | 0.10 | 58 | 1015.9 |
| 20260505222402 | 15 | 334 | 3.2 | 6.4 | 0.00 | 0.10 | 0.10 | 59 | 1015.9 |
| 20260505221858 | 15 | 331 | 3.2 | 4.8 | 0.00 | 0.10 | 0.10 | 59 | 1015.9 |
| 20260505221355 | 15 | 12 | 3.2 | 3.2 | 0.00 | 0.10 | 0.10 | 58 | 1015.7 |
| 20260505220852 | 15 | 315 | 3.2 | 4.8 | 0.00 | 0.10 | 0.10 | 59 | 1015.7 |
| 20260505220349 | 15 | 353 | 3.2 | 6.4 | 0.00 | 0.10 | 0.10 | 59 | 1015.7 |
| 20260505215847 | 15 | 12 | 3.2 | 8.0 | 0.00 | 0.10 | 0.10 | 58 | 1015.9 |
| 20260505215345 | 15 | 319 | 4.8 | 9.7 | 0.00 | 0.10 | 0.10 | 59 | 1015.7 |
| 20260505214843 | 15 | 358 | 3.2 | 6.4 | 0.00 | 0.10 | 0.10 | 59 | 1015.7 |
| 20260505214340 | 15 | 347 | 3.2 | 4.8 | 0.00 | 0.10 | 0.10 | 59 | 1015.9 |
| 20260505213837 | 15 | 315 | 8.0 | 9.7 | 0.00 | 0.10 | 0.10 | 59 | 1016.0 |
| 20260505213335 | 15 | 277 | 3.2 | 9.7 | 0.00 | 0.10 | 0.10 | 59 | 1016.0 |
| 20260505212830 | 15 | 39 | 8.0 | 9.7 | 0.00 | 0.10 | 0.10 | 58 | 1016.0 |
| 20260505212328 | 16 | 345 | 1.6 | 4.8 | 0.00 | 0.10 | 0.10 | 57 | 1016.1 |
| 20260505211823 | 15 | 349 | 1.6 | 6.4 | 0.00 | 0.10 | 0.10 | 57 | 1015.7 |
| 20260505211322 | 15 | 9 | 4.8 | 9.7 | 0.00 | 0.10 | 0.10 | 59 | 1016.0 |
| 20260505210818 | 15 | 17 | 0.0 | 6.4 | 0.00 | 0.10 | 0.10 | 61 | 1015.9 |
| 20260505210315 | 15 | 11 | 3.2 | 6.4 | 0.00 | 0.10 | 0.10 | 61 | 1016.0 |
| 20260505205812 | 15 | 0 | 1.6 | 6.4 | 0.00 | 0.10 | 0.10 | 62 | 1015.7 |
| 20260505205310 | 15 | 7 | 0.0 | 6.4 | 0.00 | 0.10 | 0.10 | 62 | 1015.9 |
| 20260505204806 | 15 | 350 | 4.8 | 9.7 | 0.00 | 0.10 | 0.10 | 63 | 1015.7 |
| 20260505204304 | 15 | 29 | 3.2 | 6.4 | 0.00 | 0.10 | 0.10 | 63 | 1015.7 |
| 20260505203801 | 15 | 21 | 4.8 | 9.7 | 0.00 | 0.10 | 0.10 | 66 | 1015.7 |
| 20260505203258 | 15 | 312 | 3.2 | 6.4 | 0.00 | 0.10 | 0.10 | 63 | 1016.0 |
| 20260505202754 | 15 | 321 | 4.8 | 8.0 | 0.00 | 0.10 | 0.10 | 65 | 1016.0 |
| 20260505202250 | 15 | 320 | 4.8 | 12.9 | 0.00 | 0.10 | 0.10 | 67 | 1015.7 |
| 20260505201747 | 15 | 9 | 3.2 | 14.5 | 0.00 | 0.10 | 0.10 | 67 | 1015.7 |
| 20260505201245 | 15 | 331 | 4.8 | 9.7 | 0.00 | 0.10 | 0.10 | 66 | 1015.7 |
| 20260505200743 | 15 | 309 | 3.2 | 4.8 | 0.00 | 0.10 | 0.10 | 65 | 1015.7 |
| 20260505200240 | 15 | 296 | 3.2 | 12.9 | 0.00 | 0.10 | 0.10 | 67 | 1015.6 |
| 20260505195735 | 15 | 269 | 0.0 | 8.0 | 0.00 | 0.10 | 0.10 | 72 | 1015.7 |